Location: Ferintosh
(52.7647°N, 112.9692°W)
Time: 22:24:49
(UTC+00:00)

A-11 Canister half - Pass Details

Date: 23 May 2024
Orbit: 1524 x 1683 km, 47.3° (Epoch: 19 June)

Event Time Altitude Azimuth Distance (km) Brightness Sun altitude
Rises 06:40:12 0° 253° (WSW) 4,706 11.5 -15.8°
Reaches altitude 10° 06:43:14 10° 250° (WSW) 3,739 10.9 -15.9°
Maximum altitude 06:52:32 63° 173° (S) 1,745 9.0 -16.1°
Drops below altitude 10° 07:02:10 10° 95° (E) 3,865 11.0 -16.3°
Sets 07:05:22 0° 93° (E) 4,872 11.5 -16.4°
